Home > Weather > Jodhpur > Past weeks

Flag for India Past Weather in Jodhpur, Rajasthan, India — Yesterday and Last 2 Weeks

Now
86 °F

Thunderstorms. Partly cloudy.


Feels Like: 95 °F
Forecast: 89 / 100 °F
Wind: 6 mph from North

Location: Jaipur / Sanganer

Current Time: Jun 29, 2016 at 2:05:22 AM

Latest Report: Jun 29, 2016 at 1:00 AM


Visibility: 2 mi

Pressure: 29.65 "Hg

Humidity: 70%

Dew Point: 75 °F

Location of JodhpurLocation

Past Weather in Jodhpur — Graph

°F

Jodhpur Temperature Yesterday

Maximum temperature yesterday: 95 °F (at 2:00 PM)
Minimum temperature yesterday: 81 °F (at 5:00 AM)
Average temperature yesterday: 89 °F

High & Low Weather Summary for the Past Weeks

 TemperatureHumidityPressure
High108 °F (Jun 17, 4:30 PM)94% (Jun 28, 5:00 AM)29.74 "Hg (Jun 28, 5:00 AM)
Low81 °F (Jun 21, 5:30 PM)19% (Jun 17, 5:00 PM)29.45 "Hg (Jun 15, 4:00 PM)
Average93 °F47%29.59 "Hg
* Reported Jun 13 11:30 PM — Jun 29 12:00 AM, Jodhpur, Weather by CustomWeather, © 2016

Note: Actual official high and low records may vary slightly from our data, if they occured in-between our weather recording intervals... More about our weather records

Advertising

Jodhpur Weather History for the Previous 24 Hours

Scroll right to see more
 ConditionsComfort  
Time TempWeatherWind HumidityBarometerVisibility
12:00 AM
Wed, Jun 29
84 °FThunderstorms. Partly cloudy.8 mph74%29.65 "Hg2 mi
11:30 PM
Tue, Jun 28
84 °FThunderstorms. Passing clouds.8 mph70%29.68 "Hg2 mi
11:00 PM86 °FThunderstorms. Passing clouds.7 mph75%29.65 "Hg2 mi
10:00 PM88 °FPassing clouds.8 mph66%29.65 "Hg2 mi
9:30 PM90 °FPassing clouds.10 mph63%29.62 "Hg2 mi
9:00 PM90 °FPassing clouds.9 mph67%29.59 "Hg2 mi
8:30 PM91 °FPassing clouds.9 mph56%29.59 "Hg2 mi
8:00 PM93 °FPassing clouds.6 mph56%29.59 "Hg2 mi
7:30 PM95 °FScattered clouds.1 mph50%29.56 "Hg2 mi
7:00 PM95 °FScattered clouds.2 mph50%29.56 "Hg2 mi
6:00 PM95 °FBroken clouds.6 mph50%29.53 "Hg2 mi
5:00 PM95 °FBroken clouds.7 mph53%29.56 "Hg2 mi
4:30 PM95 °FBroken clouds.7 mph53%29.56 "Hg2 mi
4:00 PM95 °FBroken clouds.7 mph53%29.56 "Hg2 mi
3:00 PM95 °FBroken clouds.6 mph53%29.59 "Hg2 mi
2:30 PM95 °FScattered clouds.8 mph53%29.62 "Hg2 mi
2:00 PM95 °FBroken clouds.9 mph53%29.62 "Hg2 mi
1:30 PM93 °FBroken clouds.9 mph56%29.62 "Hg2 mi
1:00 PM93 °FBroken clouds.10 mph59%29.65 "Hg2 mi
12:30 PM91 °FBroken clouds.15 mph63%29.65 "Hg2 mi
12:00 PM93 °FBroken clouds.9 mph59%29.65 "Hg2 mi
11:30 AM90 °FBroken clouds.10 mph67%29.68 "Hg2 mi
11:00 AM88 °FBroken clouds.12 mph70%29.68 "Hg2 mi
10:30 AM88 °FBroken clouds.12 mph70%29.68 "Hg2 mi
9:30 AM88 °FBroken clouds.8 mph70%29.65 "Hg2 mi
8:30 AM86 °FFog.7 mph75%29.65 "Hg2 mi
8:00 AM86 °FFog.6 mph75%29.65 "Hg1 mi
7:30 AM84 °FFog.6 mph84%29.65 "Hg1 mi
7:00 AM82 °FFog.5 mph89%29.65 "Hg1 mi
6:30 AM82 °FFog.5 mph89%29.62 "Hg2 mi
6:00 AM81 °FFog.6 mph94%29.62 "Hg2 mi
5:00 AM81 °FPassing clouds.5 mph94%29.59 "Hg2 mi
2:30 AM82 °FPassing clouds.No wind89%29.59 "Hg1 mi
Weather by CustomWeather, © 2016

See weather overviewHow to use our weather pages